Location: Barrio Las Umbrías
(40.4173°N, 4.8685°W)
Time: 13:38:09
(UTC+00:00)

Ariane Rocket - Pass Details

Date: 17 August 2022
Orbit: 760 x 769 km, 98.6° (Epoch: 28 September)

Event Time Altitude Azimuth Distance (km) Brightness Sun altitude
Exits shadow 21:43:30 33° 213° (SSW) 1,256 3.9 -24.8°
Maximum altitude 21:45:14 46° 261° (W) 1,021 3.8 -25.0°
Drops below altitude 10° 21:50:05 10° 334° (NNW) 2,299 6.4 -25.7°
Sets 21:52:29 0° 340° (NNW) 3,229 7.3 -26.0°
